"Pseudo-MPEC" for C25AWG2

Created 2020 Feb 15 18:07:10 UT using Find_Orb

Click here for an explanation of pseudo-MPECs

 
 Astrometry: 
     C25AWG2  C2020 02 14.50537 12 17 47.94 +16 22 56.2    ~2ECq 20.8 GVNEOCPG96
     C25AWG2  C2020 02 14.51051 12 17 52.07 +16 22 03.8    ~2ECq 20.2 GVNEOCPG96
     C25AWG2  C2020 02 14.51566 12 17 56.21 +16 21 08.5    ~2ECq 20.6 GVNEOCPG96
     C25AWG2  C2020 02 14.52081 12 18 00.32 +16 20 15.8    ~2ECq 20.4 GVNEOCPG96
     C25AWG2 KC2020 02 14FrP2@]VJh*E,w;^bO%j$,vADDTj@MOJsHU_BlolZSk@P,%m5*]9jL01
     C25AWG2 pC2020 02 14Y45WhYR.Vi01O,WxAstrometryy8RD2(+7O@B24fFH!W7Z/-C@v-L01
     C25AWG2 KC2020 02 14+%:c$mU0kglvYBqUT+ATSC2DWu+T;(Ga00?#?On,BE?tr!'.99-JL01
     C25AWG2 KC2020 02 14h8%*tA+\QoU.redacted;4+Vt'!:yq4qLPR[Ckhn4ZsUn#kyrFa`L01
     C25AWG2 pC2020 02 15+=Z2sN1D=]qGi,kclick[t_IT2AcDTYp!@V,7jsdheres^/6AZ]eL01
     C25AWG2 pC2020 02 15f(F:gIHyj2Y4fl*gf:NX*GBW++m'?+l+3ly!;HT+4hsZWBGKpYU=L01
     C25AWG2 pC2020 02 15!gaZ)eOfyAeT6g.u!vnV1%x2PHk`eFMA--KhMforTTvsZ2;BbsVrL01
     C25AWG2 KC2020 02 15*6JpfraL7-SYo;^7h8knh(UYJ=Pws[cMQPElV]T0pIKT`mF+;5#CH21
     C25AWG2 KC2020 02 15j7G-AEZCDJ2Np$*-explanationXn#[s1ufW'l^$6OLCpKX9QdcPH21
     C25AWG2 KC2020 02 154h4u]x\VcWw@8$gP]#%/!u4Yhe5,)?@KS;K6maG0?DQ1ra_ufHP;H21
     C25AWG2 KC2020 02 15\/)D6+c00qL[asC.*,5'/-hH\.K3I-v,cAvH^-X/3nq`kYj-fY4OH21

Station data:
(G96) Mt. Lemmon Survey  (N32.442754 W110.788720)  US/Arizona.  Observers T.
   A. Pruyne, B. M. Africano, E. J. Christensen, G. A. Farneth, D. C. Fuls,
   A. R. Gibbs, A. D. Grauer, H. Gröller, J. A. Johnson, R. A. Kowalski, S.
   M. Larson, G. J. Leonard, D. Rankin, R. L. Seaman, F. C. Shelly. 1.5-m
   reflector + 10K CCD.
(H21) Astronomical Research Observatory, Westfield  (N39.483057 W87.968270)
   US/Illinois. 0.76-m f/3.0 astrograph + CCD.
(L01) Višnjan Observatory, Tičan  (N45.290900 E13.749300)  Croatia.
   Observers K. Korlević, E. Pettarin. Measurer E. Pettarin. 1.0-m f/2.9
   reflector + CCD.

Orbital elements:  C25AWG2
   Perihelion 2020 Jan 23.800731 +/- 0.00391 TT = 19:13:03 (JD 2458872.300731)
Epoch 2020 Feb 15.0 TT = JDT 2458894.5   Earth MOID: 0.0003   Ma: 0.0186
M  12.15299624 +/- 0.028            (J2000 ecliptic)          AutoNEOCP
n   0.54745028 +/- 0.0013           Peri.  339.39639 +/- 0.020
a   1.47992461 +/- 0.00235          Node   140.43546 +/- 0.007
e   0.3436648 +/- 0.00109           Incl.    2.08933 +/- 0.006
P   1.80/657.58d           H 29.4   G  0.15   U  8.3  
q 0.97132648 +/- 6.7e-5    Q 1.98852274 +/- 0.00477
From 15 observations 2020 Feb. 14-15 (18.1 hr); mean residual 0".39
Residuals in arcseconds: 
200214 G96  .30-  .25+    200214 L01  .01+  .64-    200215 L01  .14+  .23+    
200214 G96  .12+  1.1+    200214 L01  .27-  .00     200215 H21  .02+  .01-    
200214 G96  .37+  .87-    200214 L01  .19-  .09-    200215 H21  .07-  .27+    
200214 G96  .04-  .20-    200215 L01  .52-  .58+    200215 H21  .17+  .06+    
200214 L01  .28+  .92-    200215 L01  .03-  .18+    200215 H21  .16+  .08-    

Ephemerides (geocentric):
Date (UTC) HH   RA              Dec         delta   r     elong  mag " sig PA
---- -- -- --  -------------   -----------  ------ ------ -----  --- ---- ---
2020 02 15 18  12 34 06.509   +13 54 22.96  .01442 0.9989 141.1 21.7 .338 161
2020 02 15 19  12 34 29.541   +13 50 34.60  .01454 0.9990 141.0 21.7 .472 153
2020 02 15 20  12 34 52.153   +13 46 50.03  .01467 0.9991 140.9 21.7 .614 148
2020 02 15 21  12 35 14.358   +13 43 09.18  .01479 0.9992 140.9 21.8 .763 145
2020 02 15 22  12 35 36.165   +13 39 31.95  .01492 0.9993 140.8 21.8 .917 143
2020 02 15 23  12 35 57.585   +13 35 58.25  .01505 0.9994 140.8 21.8 1.08 142
2020 02 16 00  12 36 18.627   +13 32 28.00  .01517 0.9995 140.7 21.8 1.24 141
2020 02 16 01  12 36 39.301   +13 29 01.13  .01530 0.9996 140.7 21.8 1.40 140
2020 02 16 02  12 36 59.616   +13 25 37.55  .01542 0.9997 140.6 21.9 1.57 139
2020 02 16 03  12 37 19.580   +13 22 17.19  .01555 0.9998 140.6 21.9 1.74 138
2020 02 16 04  12 37 39.202   +13 18 59.98  .01567 0.9999 140.5 21.9 1.91 137
2020 02 16 05  12 37 58.490   +13 15 45.84  .01580 1.0000 140.5 21.9 2.09 137
2020 02 16 06  12 38 17.453   +13 12 34.71  .01593 1.0001 140.5 21.9 2.27 137
2020 02 16 07  12 38 36.097   +13 09 26.52  .01605 1.0002 140.4 21.9 2.45 136
2020 02 16 08  12 38 54.431   +13 06 21.20  .01618 1.0003 140.4 22.0 2.63 136
2020 02 16 09  12 39 12.461   +13 03 18.70  .01630 1.0004 140.3 22.0 2.81 135
2020 02 16 10  12 39 30.195   +13 00 18.94  .01643 1.0005 140.3 22.0 3.00 135
2020 02 16 11  12 39 47.640   +12 57 21.87  .01655 1.0006 140.3 22.0 3.18 135
2020 02 16 12  12 40 04.801   +12 54 27.44  .01668 1.0007 140.2 22.0 3.37 135
2020 02 16 13  12 40 21.686   +12 51 35.58  .01681 1.0008 140.2 22.1 3.56 134
2020 02 16 14  12 40 38.300   +12 48 46.25  .01693 1.0009 140.2 22.1 3.74 134
2020 02 16 15  12 40 54.650   +12 45 59.38  .01706 1.0010 140.1 22.1 3.93 134
2020 02 16 16  12 41 10.742   +12 43 14.93  .01719 1.0011 140.1 22.1 4.12 134
2020 02 16 17  12 41 26.580   +12 40 32.84  .01731 1.0012 140.1 22.1 4.32 134
2020 02 16 18  12 41 42.171   +12 37 53.07  .01744 1.0013 140.0 22.1 4.51 134
2020 02 16 19  12 41 57.520   +12 35 15.57  .01756 1.0014 140.0 22.2 4.70 133
2020 02 16 20  12 42 12.632   +12 32 40.29  .01769 1.0015 140.0 22.2 4.89 133
2020 02 16 21  12 42 27.512   +12 30 07.19  .01782 1.0016 140.0 22.2 5.09 133
2020 02 16 22  12 42 42.165   +12 27 36.23  .01794 1.0017 139.9 22.2 5.28 133
2020 02 16 23  12 42 56.596   +12 25 07.35  .01807 1.0018 139.9 22.2 5.47 133
2020 02 17 00  12 43 10.810   +12 22 40.53  .01820 1.0019 139.9 22.2 5.66 133
2020 02 17 01  12 43 24.810   +12 20 15.71  .01832 1.0020 139.9 22.3 5.86 133
2020 02 17 02  12 43 38.602   +12 17 52.86  .01845 1.0021 139.9 22.3 6.05 133
2020 02 17 03  12 43 52.189   +12 15 31.94  .01858 1.0022 139.8 22.3 6.24 133
2020 02 17 04  12 44 05.576   +12 13 12.92  .01870 1.0023 139.8 22.3 6.44 133
2020 02 17 05  12 44 18.766   +12 10 55.75  .01883 1.0024 139.8 22.3 6.63 132
2020 02 17 06  12 44 31.764   +12 08 40.40  .01896 1.0025 139.8 22.3 6.82 132
2020 02 17 07  12 44 44.573   +12 06 26.84  .01908 1.0026 139.8 22.3 7.02 132
2020 02 17 08  12 44 57.198   +12 04 15.03  .01921 1.0027 139.7 22.4 7.21 132
2020 02 17 09  12 45 09.641   +12 02 04.94  .01934 1.0028 139.7 22.4 7.40 132
2020 02 17 10  12 45 21.907   +11 59 56.53  .01946 1.0029 139.7 22.4 7.59 132
2020 02 17 11  12 45 33.998   +11 57 49.78  .01959 1.0030 139.7 22.4 7.78 132
2020 02 17 12  12 45 45.918   +11 55 44.66  .01972 1.0031 139.7 22.4 7.97 132
2020 02 17 13  12 45 57.670   +11 53 41.13  .01984 1.0033 139.7 22.4 8.16 132
2020 02 17 14  12 46 09.258   +11 51 39.16  .01997 1.0034 139.7 22.4 8.35 132
2020 02 17 15  12 46 20.684   +11 49 38.73  .02010 1.0035 139.7 22.5 8.54 132
2020 02 17 16  12 46 31.952   +11 47 39.81  .02022 1.0036 139.6 22.5 8.73 132
2020 02 17 17  12 46 43.064   +11 45 42.38  .02035 1.0037 139.6 22.5 8.91 132